QPF
0.14 0.15 0.16 0.12 0.10 0.10 0.12 0.09 0.06 0.07 0.09 0.09 0.08 0.10 0.12 0.07 0.05 0.07 0.07 0.06 0.08 0.09 0.08 0.06 0.07 0.07 0.08 0.08 0.09 0.08 0.07 0.08 0.10 0.09 0.09 0.08 0.08 0.07 0.05 0.05 0.02 0.02 0.03
0.14 0.15 0.13 0.10 0.10 0.09 0.08 0.07 0.05 0.05 0.08 0.09 0.10 0.14 0.11 0.08 0.07 0.08 0.08 0.10 0.09 0.10 0.08 0.06 0.05 0.07 0.09 0.08 0.09 0.11 0.10 0.12 0.16 0.13 0.09 0.09 0.09 0.08 0.07 0.05 0.04 0.03 0.03
0.10 0.11 0.12 0.11 0.09 0.08 0.06 0.05 0.05 0.05 0.07 0.09 0.12 0.16 0.13 0.10 0.09 0.10 0.10 0.11 0.10 0.09 0.08 0.07 0.06 0.07 0.09 0.10 0.12 0.11 0.11 0.14 0.22 0.20 0.13 0.08 0.07 0.09 0.08 0.07 0.05 0.04 0.04
0.07 0.08 0.08 0.09 0.08 0.07 0.07 0.06 0.07 0.07 0.08 0.12 0.14 0.13 0.12 0.11 0.11 0.11 0.08 0.07 0.08 0.10 0.08 0.07 0.07 0.09 0.10 0.10 0.12 0.15 0.14 0.15 0.24 0.22 0.15 0.07 0.05 0.07 0.07 0.07 0.05 0.04 0.04
0.06 0.07 0.11 0.11 0.07 0.05 0.05 0.07 0.07 0.07 0.10 0.14 0.13 0.10 0.09 0.10 0.09 0.10 0.07 0.06 0.07 0.09 0.08 0.07 0.06 0.09 0.08 0.08 0.12 0.23 0.21 0.20 0.26 0.23 0.15 0.09 0.05 0.07 0.07 0.08 0.08 0.06 0.06
0.05 0.08 0.17 0.12 0.08 0.05 0.04 0.05 0.05 0.07 0.10 0.11 0.10 0.09 0.09 0.10 0.11 0.09 0.07 0.07 0.06 0.06 0.08 0.07 0.05 0.08 0.08 0.08 0.12 0.23 0.23 0.20 0.22 0.24 0.15 0.09 0.08 0.12 0.13 0.14 0.13 0.11 0.08
0.07 0.12 0.20 0.16 0.09 0.08 0.07 0.06 0.06 0.07 0.07 0.08 0.10 0.10 0.09 0.11 0.10 0.08 0.07 0.09 0.08 0.07 0.07 0.08 0.06 0.08 0.08 0.08 0.11 0.16 0.19 0.17 0.18 0.20 0.11 0.09 0.15 0.23 0.26 0.25 0.20 0.16 0.12
0.12 0.15 0.22 0.21 0.15 0.15 0.09 0.07 0.08 0.08 0.08 0.11 0.14 0.10 0.08 0.09 0.09 0.07 0.08 0.10 0.08 0.08 0.08 0.08 0.07 0.09 0.09 0.07 0.09 0.12 0.14 0.14 0.14 0.11 0.06 0.06 0.11 0.19 0.21 0.20 0.16 0.11 0.09
0.10 0.12 0.15 0.17 0.20 0.18 0.13 0.11 0.12 0.13 0.12 0.11 0.12 0.09 0.08 0.08 0.09 0.10 0.09 0.12 0.08 0.09 0.09 0.09 0.08 0.09 0.12 0.09 0.09 0.11 0.11 0.09 0.06 0.04 0.04 0.05 0.07 0.08 0.10 0.10 0.08 0.06 0.06
0.05 0.08 0.09 0.10 0.15 0.18 0.16 0.15 0.14 0.13 0.12 0.10 0.09 0.09 0.09 0.09 0.08 0.08 0.09 0.09 0.08 0.08 0.10 0.11 0.18 0.19 0.18 0.15 0.12 0.12 0.09 0.07 0.06 0.05 0.05 0.06 0.06 0.08 0.09 0.08 0.05 0.05 0.05
0.04 0.05 0.07 0.08 0.12 0.13 0.15 0.17 0.15 0.12 0.10 0.09 0.09 0.09 0.10 0.10 0.08 0.07 0.05 0.06 0.08 0.10 0.13 0.12 0.21 0.39 0.32 0.26 0.19 0.15 0.10 0.06 0.06 0.07 0.07 0.07 0.07 0.08 0.08 0.07 0.06 0.06 0.05
0.04 0.05 0.06 0.08 0.10 0.10 0.11 0.14 0.12 0.09 0.07 0.06 0.05 0.04 0.04 0.05 0.07 0.08 0.07 0.09 0.11 0.14 0.14 0.11 0.13 0.26 0.32 0.32 0.24 0.17 0.10 0.07 0.07 0.08 0.07 0.08 0.10 0.08 0.08 0.07 0.06 0.06 0.06
0.02 0.03 0.05 0.07 0.10 0.11 0.12 0.11 0.08 0.05 0.05 0.04 0.03 0.02 0.03 0.07 0.08 0.07 0.09 0.12 0.12 0.15 0.13 0.09 0.08 0.11 0.18 0.21 0.16 0.12 0.10 0.10 0.11 0.10 0.09 0.09 0.11 0.09 0.11 0.12 0.10 0.07 0.07
0.00 0.00 0.01 0.03 0.05 0.07 0.08 0.06 0.04 0.03 0.03 0.03 0.03 0.03 0.05 0.09 0.08 0.06 0.07 0.09 0.12 0.14 0.10 0.06 0.04 0.05 0.09 0.14 0.12 0.08 0.07 0.07 0.09 0.09 0.09 0.10 0.10 0.11 0.12 0.12 0.12 0.11 0.10
0.01 0.01 0.01 0.01 0.02 0.04 0.05 0.05 0.03 0.03 0.03 0.04 0.04 0.06 0.09 0.12 0.08 0.07 0.06 0.07 0.06 0.07 0.06 0.04 0.03 0.03 0.04 0.07 0.07 0.06 0.05 0.05 0.06 0.06 0.06 0.07 0.07 0.08 0.09 0.12 0.11 0.10 0.10
0.02 0.01 0.01 0.01 0.01 0.02 0.04 0.05 0.05 0.04 0.05 0.06 0.07 0.08 0.10 0.09 0.06 0.06 0.05 0.05 0.03 0.04 0.05 0.04 0.03 0.02 0.02 0.03 0.04 0.05 0.05 0.05 0.05 0.05 0.04 0.05 0.06 0.07 0.07 0.09 0.08 0.08 0.11
0.02 0.02 0.01 0.01 0.02 0.02 0.03 0.04 0.04 0.04 0.05 0.05 0.05 0.05 0.06 0.06 0.06 0.03 0.02 0.04 0.04 0.03 0.04 0.04 0.04 0.04 0.04 0.04 0.05 0.06 0.05 0.04 0.05 0.05 0.04 0.04 0.03 0.04 0.06 0.08 0.09 0.10 0.11
0.02 0.02 0.01 0.01 0.01 0.02 0.02 0.03 0.03 0.03 0.05 0.05 0.04 0.03 0.03 0.04 0.04 0.04 0.04 0.04 0.03 0.03 0.05 0.04 0.05 0.07 0.06 0.05 0.05 0.04 0.04 0.04 0.04 0.03 0.02 0.03 0.02 0.02 0.04 0.07 0.10 0.11 0.12
0.01 0.01 0.01 0.01 0.01 0.01 0.02 0.02 0.02 0.03 0.04 0.04 0.04 0.03 0.02 0.02 0.04 0.05 0.06 0.05 0.04 0.04 0.05 0.05 0.07 0.09 0.06 0.04 0.04 0.03 0.03 0.04 0.04 0.03 0.02 0.02 0.03 0.03 0.03 0.04 0.07 0.09 0.11
0.01 0.01 0.01 0.01 0.01 0.01 0.01 0.02 0.03 0.03 0.03 0.03 0.02 0.03 0.04 0.05 0.05 0.06 0.07 0.07 0.07 0.06 0.06 0.07 0.07 0.07 0.04 0.03 0.03 0.03 0.03 0.03 0.03 0.03 0.03 0.03 0.04 0.04 0.03 0.03 0.04 0.06 0.07
0.00 0.00 0.01 0.01 0.01 0.01 0.01 0.02 0.02 0.03 0.03 0.03 0.02 0.02 0.03 0.04 0.06 0.06 0.08 0.10 0.09 0.07 0.06 0.05 0.04 0.03 0.03 0.03 0.04 0.04 0.04 0.05 0.06 0.05 0.05 0.05 0.05 0.06 0.04 0.03 0.04 0.05 0.06
0.00 0.00 0.00 0.00 0.01 0.01 0.01 0.02 0.02 0.02 0.02 0.02 0.03 0.01 0.01 0.02 0.05 0.07 0.07 0.08 0.08 0.08 0.06 0.05 0.05 0.05 0.05 0.04 0.03 0.05 0.06 0.08 0.07 0.06 0.05 0.05 0.06 0.05 0.04 0.04 0.04 0.04 0.05
0.01 0.01 0.00 0.01 0.01 0.01 0.01 0.01 0.01 0.01 0.01 0.01 0.02 0.01 0.01 0.01 0.02 0.05 0.06 0.07 0.08 0.09 0.08 0.07 0.07 0.09 0.09 0.07 0.06 0.07 0.08 0.08 0.07 0.06 0.05 0.05 0.05 0.05 0.04 0.03 0.03 0.03 0.03
0.02 0.02 0.01 0.01 0.01 0.01 0.01 0.01 0.01 0.01 0.01 0.02 0.02 0.02 0.02 0.03 0.03 0.03 0.04 0.04 0.06 0.08 0.08 0.08 0.07 0.07 0.07 0.07 0.08 0.09 0.08 0.07 0.07 0.05 0.04 0.04 0.04 0.04 0.03 0.03 0.03 0.03 0.02
0.02 0.02 0.02 0.01 0.02 0.02 0.01 0.01 0.00 0.01 0.01 0.03 0.04 0.05 0.04 0.04 0.03 0.03 0.03 0.04 0.04 0.04 0.05 0.06 0.06 0.06 0.06 0.05 0.06 0.09 0.11 0.09 0.06 0.04 0.03 0.03 0.03 0.03 0.02 0.02 0.02 0.03 0.03
0.01 0.01 0.02 0.02 0.02 0.02 0.02 0.01 0.02 0.02 0.02 0.04 0.06 0.05 0.05 0.04 0.05 0.07 0.07 0.08 0.07 0.06 0.03 0.03 0.04 0.05 0.05 0.05 0.05 0.07 0.08 0.08 0.06 0.04 0.02 0.01 0.02 0.02 0.02 0.02 0.02 0.02 0.03
MSLP
1012.47 1011.85 1011.42 1011.21 1011.23 1011.42 1011.71 1012.04 1012.34 1012.57 1012.75 1012.88 1013.02 1013.18 1013.41 1013.68 1013.99 1014.31 1014.60 1014.84 1015.02 1015.13 1015.21 1015.27 1015.34 1015.44 1015.57 1015.73 1015.91 1016.09 1016.26 1016.41 1016.55 1016.67 1016.80 1016.93 1017.07 1017.20 1017.33 1017.46 1017.57 1017.68 1017.80
1012.41 1011.88 1011.52 1011.39 1011.46 1011.69 1012.01 1012.35 1012.66 1012.90 1013.08 1013.23 1013.39 1013.59 1013.83 1014.12 1014.42 1014.72 1014.98 1015.18 1015.31 1015.40 1015.45 1015.50 1015.57 1015.67 1015.80 1015.97 1016.14 1016.31 1016.47 1016.62 1016.76 1016.89 1017.02 1017.16 1017.29 1017.43 1017.55 1017.67 1017.78 1017.88 1018.00
1012.25 1011.82 1011.56 1011.51 1011.65 1011.93 1012.28 1012.63 1012.95 1013.20 1013.40 1013.57 1013.75 1013.96 1014.21 1014.49 1014.77 1015.03 1015.25 1015.40 1015.50 1015.56 1015.60 1015.66 1015.74 1015.86 1016.01 1016.19 1016.37 1016.54 1016.70 1016.85 1016.99 1017.12 1017.26 1017.40 1017.53 1017.66 1017.77 1017.87 1017.97 1018.07 1018.19
1012.08 1011.77 1011.61 1011.65 1011.86 1012.18 1012.55 1012.91 1013.22 1013.47 1013.68 1013.86 1014.05 1014.27 1014.51 1014.76 1015.01 1015.23 1015.39 1015.51 1015.58 1015.63 1015.69 1015.77 1015.89 1016.04 1016.22 1016.41 1016.60 1016.78 1016.94 1017.09 1017.23 1017.36 1017.50 1017.64 1017.77 1017.88 1017.98 1018.07 1018.15 1018.24 1018.36
1011.97 1011.78 1011.74 1011.86 1012.12 1012.47 1012.83 1013.18 1013.48 1013.72 1013.91 1014.10 1014.29 1014.49 1014.72 1014.95 1015.16 1015.33 1015.46 1015.55 1015.61 1015.68 1015.76 1015.88 1016.04 1016.23 1016.44 1016.65 1016.85 1017.02 1017.17 1017.32 1017.45 1017.59 1017.73 1017.86 1017.99 1018.09 1018.18 1018.25 1018.31 1018.40 1018.51
1012.01 1011.93 1011.98 1012.17 1012.46 1012.81 1013.15 1013.46 1013.72 1013.92 1014.10 1014.27 1014.45 1014.65 1014.87 1015.07 1015.26 1015.40 1015.51 1015.58 1015.65 1015.74 1015.86 1016.02 1016.22 1016.45 1016.68 1016.90 1017.09 1017.25 1017.39 1017.51 1017.64 1017.77 1017.91 1018.05 1018.17 1018.26 1018.34 1018.39 1018.45 1018.52 1018.63
1012.19 1012.21 1012.35 1012.58 1012.88 1013.19 1013.49 1013.73 1013.93 1014.09 1014.24 1014.40 1014.58 1014.78 1014.98 1015.18 1015.35 1015.48 1015.58 1015.65 1015.74 1015.85 1016.00 1016.20 1016.44 1016.69 1016.93 1017.14 1017.30 1017.44 1017.55 1017.65 1017.76 1017.89 1018.02 1018.16 1018.28 1018.38 1018.44 1018.49 1018.54 1018.61 1018.72
1012.50 1012.60 1012.79 1013.05 1013.33 1013.59 1013.82 1013.99 1014.13 1014.24 1014.36 1014.50 1014.68 1014.89 1015.11 1015.31 1015.48 1015.61 1015.71 1015.79 1015.89 1016.02 1016.20 1016.42 1016.67 1016.92 1017.14 1017.33 1017.46 1017.56 1017.64 1017.71 1017.80 1017.92 1018.05 1018.19 1018.32 1018.42 1018.49 1018.54 1018.59 1018.66 1018.78
1012.85 1013.01 1013.24 1013.50 1013.75 1013.96 1014.12 1014.22 1014.29 1014.36 1014.46 1014.61 1014.80 1015.03 1015.27 1015.49 1015.67 1015.80 1015.90 1015.98 1016.08 1016.22 1016.40 1016.62 1016.86 1017.10 1017.30 1017.45 1017.55 1017.60 1017.64 1017.69 1017.76 1017.87 1018.00 1018.14 1018.28 1018.38 1018.47 1018.53 1018.58 1018.67 1018.78
1013.13 1013.35 1013.61 1013.87 1014.09 1014.26 1014.35 1014.40 1014.43 1014.47 1014.56 1014.72 1014.95 1015.20 1015.47 1015.71 1015.90 1016.03 1016.12 1016.20 1016.29 1016.41 1016.57 1016.77 1016.99 1017.20 1017.37 1017.48 1017.54 1017.57 1017.57 1017.59 1017.65 1017.74 1017.87 1018.01 1018.15 1018.27 1018.37 1018.44 1018.51 1018.60 1018.73
1013.28 1013.55 1013.83 1014.09 1014.30 1014.44 1014.50 1014.51 1014.52 1014.56 1014.67 1014.85 1015.10 1015.39 1015.68 1015.93 1016.13 1016.26 1016.34 1016.39 1016.45 1016.54 1016.68 1016.85 1017.04 1017.21 1017.35 1017.44 1017.47 1017.47 1017.45 1017.45 1017.49 1017.56 1017.68 1017.82 1017.96 1018.09 1018.19 1018.28 1018.36 1018.47 1018.61
1013.27 1013.57 1013.88 1014.15 1014.36 1014.49 1014.55 1014.56 1014.58 1014.63 1014.76 1014.97 1015.25 1015.55 1015.86 1016.12 1016.31 1016.43 1016.49 1016.52 1016.55 1016.61 1016.70 1016.84 1017.00 1017.15 1017.27 1017.34 1017.36 1017.34 1017.31 1017.29 1017.31 1017.36 1017.46 1017.58 1017.70 1017.82 1017.93 1018.03 1018.13 1018.25 1018.40
1013.10 1013.43 1013.76 1014.06 1014.28 1014.43 1014.50 1014.54 1014.59 1014.67 1014.83 1015.06 1015.35 1015.67 1015.97 1016.23 1016.41 1016.52 1016.56 1016.57 1016.57 1016.60 1016.67 1016.77 1016.91 1017.04 1017.15 1017.21 1017.23 1017.21 1017.17 1017.14 1017.12 1017.14 1017.19 1017.28 1017.38 1017.48 1017.59 1017.69 1017.80 1017.93 1018.11
1012.82 1013.17 1013.52 1013.84 1014.09 1014.27 1014.38 1014.47 1014.55 1014.67 1014.85 1015.09 1015.38 1015.69 1015.98 1016.22 1016.39 1016.49 1016.53 1016.53 1016.52 1016.54 1016.59 1016.68 1016.80 1016.93 1017.03 1017.10 1017.12 1017.10 1017.05 1016.98 1016.93 1016.90 1016.90 1016.93 1016.99 1017.07 1017.16 1017.26 1017.39 1017.54 1017.73
1012.49 1012.85 1013.21 1013.54 1013.82 1014.04 1014.21 1014.34 1014.47 1014.62 1014.81 1015.04 1015.31 1015.59 1015.86 1016.08 1016.25 1016.35 1016.40 1016.42 1016.43 1016.45 1016.51 1016.60 1016.72 1016.84 1016.94 1017.01 1017.03 1017.00 1016.93 1016.84 1016.73 1016.64 1016.58 1016.54 1016.55 1016.59 1016.66 1016.76 1016.90 1017.08 1017.28
1012.16 1012.50 1012.86 1013.20 1013.50 1013.77 1013.99 1014.18 1014.35 1014.52 1014.70 1014.91 1015.14 1015.38 1015.61 1015.82 1015.99 1016.11 1016.20 1016.26 1016.31 1016.37 1016.44 1016.54 1016.66 1016.78 1016.88 1016.95 1016.96 1016.92 1016.82 1016.68 1016.52 1016.37 1016.23 1016.12 1016.07 1016.07 1016.12 1016.23 1016.38 1016.58 1016.81
1011.84 1012.15 1012.48 1012.82 1013.15 1013.46 1013.73 1013.97 1014.17 1014.36 1014.53 1014.70 1014.88 1015.06 1015.25 1015.44 1015.62 1015.78 1015.92 1016.04 1016.16 1016.27 1016.38 1016.50 1016.62 1016.74 1016.83 1016.88 1016.88 1016.82 1016.69 1016.52 1016.31 1016.09 1015.88 1015.71 1015.59 1015.55 1015.59 1015.69 1015.86 1016.08 1016.34
1011.50 1011.77 1012.07 1012.40 1012.75 1013.09 1013.42 1013.71 1013.95 1014.14 1014.29 1014.42 1014.54 1014.66 1014.81 1014.98 1015.17 1015.37 1015.58 1015.78 1015.96 1016.13 1016.29 1016.43 1016.55 1016.66 1016.74 1016.78 1016.76 1016.69 1016.55 1016.35 1016.11 1015.83 1015.57 1015.34 1015.18 1015.10 1015.12 1015.22 1015.40 1015.64 1015.91
1011.11 1011.33 1011.60 1011.92 1012.28 1012.66 1013.04 1013.38 1013.66 1013.86 1014.00 1014.08 1014.14 1014.20 1014.30 1014.45 1014.65 1014.89 1015.16 1015.44 1015.70 1015.93 1016.12 1016.28 1016.41 1016.51 1016.58 1016.62 1016.61 1016.54 1016.40 1016.20 1015.95 1015.65 1015.36 1015.09 1014.88 1014.77 1014.75 1014.84 1015.03 1015.27 1015.55
1010.60 1010.79 1011.02 1011.33 1011.72 1012.14 1012.58 1012.98 1013.30 1013.52 1013.65 1013.69 1013.70 1013.70 1013.75 1013.87 1014.07 1014.35 1014.66 1015.00 1015.32 1015.60 1015.83 1016.01 1016.15 1016.26 1016.33 1016.38 1016.39 1016.36 1016.26 1016.10 1015.86 1015.58 1015.27 1014.98 1014.74 1014.58 1014.53 1014.60 1014.76 1015.00 1015.27
1009.96 1010.11 1010.33 1010.64 1011.05 1011.52 1012.02 1012.48 1012.85 1013.11 1013.24 1013.26 1013.22 1013.18 1013.18 1013.26 1013.45 1013.73 1014.08 1014.45 1014.81 1015.13 1015.39 1015.59 1015.75 1015.87 1015.97 1016.06 1016.13 1016.16 1016.14 1016.04 1015.87 1015.62 1015.32 1015.02 1014.75 1014.55 1014.46 1014.47 1014.59 1014.80 1015.05
1009.19 1009.33 1009.53 1009.85 1010.28 1010.79 1011.35 1011.87 1012.30 1012.60 1012.75 1012.76 1012.70 1012.62 1012.57 1012.62 1012.78 1013.05 1013.40 1013.79 1014.17 1014.51 1014.79 1015.02 1015.20 1015.36 1015.51 1015.67 1015.82 1015.95 1016.03 1016.03 1015.94 1015.75 1015.49 1015.19 1014.89 1014.65 1014.49 1014.44 1014.50 1014.65 1014.86
1008.35 1008.48 1008.68 1009.00 1009.44 1009.99 1010.59 1011.16 1011.65 1011.99 1012.17 1012.19 1012.12 1012.01 1011.93 1011.94 1012.07 1012.31 1012.64 1013.02 1013.41 1013.76 1014.05 1014.30 1014.52 1014.73 1014.95 1015.19 1015.45 1015.69 1015.89 1016.01 1016.02 1015.90 1015.69 1015.40 1015.08 1014.79 1014.57 1014.44 1014.43 1014.51 1014.66
1007.53 1007.65 1007.84 1008.15 1008.58 1009.14 1009.76 1010.37 1010.89 1011.27 1011.48 1011.53 1011.46 1011.35 1011.25 1011.22 1011.31 1011.52 1011.82 1012.18 1012.55 1012.90 1013.21 1013.48 1013.74 1014.00 1014.29 1014.63 1014.99 1015.35 1015.67 1015.90 1016.02 1015.99 1015.82 1015.55 1015.22 1014.89 1014.61 1014.42 1014.33 1014.34 1014.44
1006.82 1006.94 1007.11 1007.38 1007.78 1008.30 1008.90 1009.51 1010.04 1010.45 1010.69 1010.77 1010.72 1010.61 1010.51 1010.47 1010.53 1010.70 1010.97 1011.30 1011.65 1011.99 1012.31 1012.60 1012.88 1013.20 1013.55 1013.96 1014.41 1014.87 1015.29 1015.63 1015.84 1015.89 1015.78 1015.55 1015.23 1014.88 1014.56 1014.32 1014.17 1014.14 1014.19
1006.32 1006.43 1006.54 1006.75 1007.07 1007.52 1008.06 1008.62 1009.14 1009.56 1009.82 1009.92 1009.90 1009.82 1009.72 1009.68 1009.72 1009.87 1010.11 1010.41 1010.74 1011.06 1011.37 1011.68 1011.98 1012.33 1012.72 1013.18 1013.69 1014.21 1014.71 1015.12 1015.41 1015.53 1015.49 1015.31 1015.03 1014.71 1014.39 1014.13 1013.96 1013.90 1013.93
Thickness
5788 5792 5793 5793 5794 5793 5792 5791 5790 5789 5789 5789 5788 5787 5786 5785 5783 5782 5782 5781 5780 5780 5780 5779 5778 5776 5775 5774 5772 5771 5770 5769 5768 5767 5766 5764 5763 5762 5761 5759 5758 5757 5756
5792 5793 5793 5793 5793 5792 5791 5790 5790 5789 5788 5788 5787 5786 5785 5784 5783 5782 5781 5780 5779 5779 5778 5777 5776 5775 5774 5773 5772 5770 5769 5768 5767 5766 5764 5763 5762 5761 5760 5758 5757 5755 5754
5792 5793 5793 5792 5792 5791 5790 5789 5789 5788 5787 5787 5786 5786 5785 5783 5782 5781 5780 5779 5778 5777 5776 5776 5775 5774 5773 5772 5770 5769 5768 5767 5766 5765 5764 5762 5761 5760 5759 5757 5755 5754 5753
5792 5792 5792 5792 5791 5790 5789 5788 5788 5787 5787 5786 5785 5785 5784 5783 5782 5781 5780 5778 5777 5776 5775 5774 5773 5772 5771 5770 5769 5768 5767 5766 5765 5764 5763 5762 5761 5759 5758 5756 5754 5753 5752
5792 5792 5792 5792 5791 5790 5789 5788 5787 5786 5785 5785 5784 5784 5783 5782 5781 5780 5779 5778 5776 5775 5774 5773 5772 5771 5770 5769 5769 5767 5766 5765 5764 5763 5762 5761 5760 5759 5757 5755 5753 5752 5751
5791 5791 5792 5793 5791 5790 5788 5788 5787 5786 5785 5784 5783 5783 5782 5781 5780 5779 5778 5777 5775 5774 5773 5772 5771 5770 5769 5768 5767 5766 5766 5767 5766 5762 5761 5760 5759 5758 5756 5754 5753 5751 5749
5789 5790 5791 5791 5790 5789 5788 5787 5786 5785 5784 5784 5783 5782 5781 5781 5779 5778 5777 5776 5775 5773 5772 5771 5770 5769 5768 5767 5766 5766 5766 5766 5765 5762 5760 5759 5758 5756 5755 5753 5752 5750 5748
5788 5788 5788 5788 5787 5787 5786 5786 5785 5784 5784 5783 5782 5781 5780 5779 5778 5777 5776 5775 5773 5772 5771 5770 5769 5769 5768 5766 5765 5764 5764 5764 5763 5761 5759 5758 5756 5755 5753 5752 5750 5749 5747
5787 5786 5786 5785 5785 5785 5785 5785 5784 5783 5783 5783 5782 5780 5779 5778 5777 5776 5774 5773 5772 5771 5769 5768 5768 5768 5767 5766 5764 5763 5762 5762 5761 5759 5758 5757 5756 5755 5753 5750 5749 5748 5747
5785 5784 5784 5784 5783 5783 5783 5783 5783 5782 5781 5781 5780 5779 5778 5777 5775 5774 5773 5772 5771 5769 5768 5767 5767 5766 5765 5764 5763 5762 5761 5760 5759 5758 5757 5757 5756 5754 5752 5751 5749 5748 5746
5782 5782 5782 5782 5782 5782 5782 5781 5781 5780 5779 5779 5779 5778 5776 5775 5774 5773 5772 5771 5770 5769 5767 5766 5765 5764 5763 5762 5761 5761 5760 5759 5758 5757 5757 5756 5755 5753 5752 5750 5749 5747 5746
5778 5780 5781 5781 5780 5780 5780 5780 5779 5778 5777 5777 5777 5776 5775 5774 5773 5772 5771 5770 5768 5767 5766 5765 5764 5763 5761 5760 5759 5759 5758 5757 5757 5756 5756 5755 5754 5753 5751 5750 5748 5747 5745
5779 5779 5779 5779 5779 5779 5778 5778 5777 5776 5776 5776 5775 5775 5774 5772 5771 5770 5769 5768 5767 5765 5764 5763 5761 5761 5759 5758 5757 5757 5756 5756 5755 5755 5754 5754 5753 5752 5750 5749 5748 5746 5745
5778 5778 5779 5779 5778 5778 5777 5776 5776 5775 5775 5774 5774 5773 5772 5771 5769 5768 5767 5766 5765 5763 5763 5762 5760 5759 5758 5757 5756 5756 5755 5754 5753 5753 5753 5753 5752 5751 5749 5748 5747 5746 5745
5779 5779 5779 5779 5778 5777 5776 5776 5775 5775 5774 5774 5773 5772 5771 5770 5768 5767 5766 5765 5764 5762 5761 5760 5759 5758 5757 5756 5755 5755 5754 5753 5752 5752 5751 5751 5751 5750 5748 5747 5746 5745 5744
5780 5780 5780 5779 5779 5778 5776 5775 5775 5775 5774 5773 5772 5771 5770 5769 5768 5766 5765 5764 5763 5761 5760 5759 5758 5757 5756 5755 5754 5753 5752 5751 5751 5750 5749 5749 5749 5748 5747 5746 5745 5744 5743
5783 5782 5781 5780 5779 5778 5777 5776 5775 5774 5773 5773 5772 5771 5770 5769 5767 5766 5764 5762 5762 5761 5760 5758 5757 5756 5755 5754 5752 5752 5751 5750 5749 5748 5748 5747 5746 5746 5745 5744 5743 5742 5741
5785 5783 5782 5782 5779 5778 5777 5776 5775 5774 5773 5772 5771 5770 5769 5768 5766 5765 5763 5762 5761 5760 5759 5757 5756 5754 5752 5751 5750 5749 5748 5748 5747 5746 5746 5745 5744 5743 5743 5742 5741 5740 5739
5786 5784 5782 5781 5780 5778 5777 5776 5775 5774 5772 5772 5771 5770 5769 5768 5766 5764 5763 5761 5760 5759 5757 5756 5754 5752 5750 5748 5747 5747 5746 5745 5745 5744 5743 5743 5742 5741 5740 5740 5739 5738 5737
5787 5785 5782 5781 5780 5778 5777 5775 5773 5772 5771 5771 5770 5770 5769 5768 5766 5764 5762 5761 5759 5757 5755 5754 5751 5750 5748 5746 5745 5744 5743 5743 5743 5742 5741 5741 5740 5739 5738 5737 5736 5736 5735
5786 5784 5782 5780 5779 5777 5775 5772 5770 5769 5769 5769 5770 5769 5769 5767 5766 5764 5762 5760 5758 5755 5754 5752 5750 5747 5745 5744 5741 5738 5740 5741 5740 5740 5739 5738 5738 5737 5736 5735 5734 5733 5732
5786 5784 5782 5781 5779 5778 5776 5775 5773 5771 5770 5769 5769 5769 5768 5767 5765 5764 5762 5759 5757 5754 5752 5750 5748 5745 5743 5742 5738 5733 5730 5732 5735 5737 5737 5736 5735 5734 5734 5733 5732 5731 5729
5787 5786 5785 5782 5781 5779 5778 5776 5773 5771 5769 5767 5767 5767 5767 5766 5765 5763 5761 5759 5757 5754 5751 5749 5747 5744 5740 5739 5738 5733 5727 5723 5726 5731 5732 5733 5732 5731 5731 5730 5729 5728 5727
5790 5789 5786 5783 5782 5780 5778 5775 5772 5768 5765 5765 5766 5765 5766 5765 5764 5762 5760 5758 5756 5754 5751 5749 5747 5744 5741 5737 5735 5734 5732 5728 5723 5722 5726 5729 5729 5728 5727 5727 5726 5725 5725
5792 5789 5787 5784 5781 5780 5778 5776 5772 5769 5767 5766 5765 5764 5763 5763 5762 5760 5758 5756 5754 5752 5750 5747 5745 5743 5741 5737 5734 5732 5729 5727 5724 5720 5719 5722 5724 5725 5724 5723 5723 5723 5722
5791 5789 5786 5782 5780 5779 5777 5775 5773 5770 5767 5764 5762 5761 5760 5760 5759 5758 5756 5754 5752 5749 5748 5746 5744 5742 5739 5737 5734 5732 5728 5725 5723 5720 5717 5717 5717 5720 5721 5721 5721 5721 5720